Radiation Dose at Monitoring Post of Fukushima Daini Nuclear Power Station
Date,Time,MP-1(microSv/h),MP-2(microSv/h),MP-3(microSv/h),MP-4(microSv/h),MP-5(microSv/h),MP-6(microSv/h),MP-7(microSv/h),Wind Direction,Wind Velocity(m/s),Rain
2024/07/12,00:00,0.145,0.128,0.208,0.194,0.204,0.114,0.074,south,1.0,No
2024/07/12,00:10,0.143,0.128,0.206,0.193,0.203,0.116,0.075,south,0.9,No
2024/07/12,00:20,0.143,0.128,0.208,0.194,0.204,0.115,0.075,south-southwest,1.8,No
2024/07/12,00:30,0.145,0.129,0.207,0.193,0.205,0.116,0.075,southwest,2.1,No
2024/07/12,00:40,0.144,0.127,0.206,0.193,0.202,0.116,0.076,south-southwest,2.0,No
2024/07/12,00:50,0.144,0.128,0.208,0.194,0.203,0.115,0.075,south-southwest,1.4,No
2024/07/12,01:00,0.145,0.129,0.206,0.192,0.204,0.115,0.075,south-southwest,1.6,No
2024/07/12,01:10,0.144,0.128,0.207,0.193,0.201,0.116,0.075,west-southwest,1.1,No
2024/07/12,01:20,0.144,0.128,0.207,0.193,0.203,0.115,0.074,north-northwest,0.6,No
2024/07/12,01:30,0.144,0.128,0.206,0.191,0.204,0.114,0.075,northwest,0.7,No
2024/07/12,01:40,0.143,0.127,0.207,0.195,0.201,0.115,0.075,north-northwest,0.6,No
2024/07/12,01:50,0.145,0.128,0.205,0.193,0.203,0.115,0.075,-,CALM,No
2024/07/12,02:00,0.144,0.127,0.207,0.193,0.204,0.115,0.075,north-northwest,1.3,No
2024/07/12,02:10,0.144,0.128,0.207,0.193,0.202,0.116,0.075,north,0.8,No
2024/07/12,02:20,0.144,0.128,0.206,0.192,0.204,0.115,0.075,north,0.7,No
2024/07/12,02:30,0.144,0.127,0.208,0.194,0.203,0.116,0.075,north-northwest,1.5,No
2024/07/12,02:40,0.144,0.128,0.207,0.193,0.201,0.115,0.075,north-northwest,2.1,No
2024/07/12,02:50,0.146,0.127,0.207,0.192,0.204,0.116,0.075,north-northwest,2.0,No
2024/07/12,03:00,0.143,0.128,0.208,0.194,0.204,0.115,0.075,north-northwest,2.2,No
2024/07/12,03:10,0.143,0.127,0.205,0.192,0.202,0.115,0.075,north-northwest,2.0,No
2024/07/12,03:20,0.145,0.128,0.207,0.192,0.205,0.115,0.076,northwest,1.4,No
2024/07/12,03:30,0.143,0.128,0.207,0.195,0.202,0.116,0.074,north-northwest,1.7,No
2024/07/12,03:40,0.144,0.128,0.205,0.192,0.201,0.115,0.075,north,1.8,No
2024/07/12,03:50,0.144,0.126,0.208,0.193,0.204,0.114,0.075,north-northeast,3.1,No
2024/07/12,04:00,0.142,0.129,0.206,0.194,0.202,0.115,0.074,north,3.1,No
2024/07/12,04:10,0.144,0.127,0.206,0.190,0.201,0.115,0.075,north-northwest,2.3,No
2024/07/12,04:20,0.145,0.127,0.207,0.193,0.204,0.114,0.075,north,2.8,No
2024/07/12,04:30,0.142,0.128,0.206,0.193,0.204,0.116,0.075,north-northwest,1.9,No
2024/07/12,04:40,0.143,0.128,0.206,0.191,0.200,0.115,0.075,north-northwest,2.5,No
2024/07/12,04:50,0.144,0.128,0.208,0.193,0.205,0.115,0.075,north-northwest,1.7,No
2024/07/12,05:00,0.143,0.128,0.206,0.192,0.203,0.116,0.075,north-northwest,2.4,No
2024/07/12,05:10,0.144,0.127,0.208,0.190,0.202,0.115,0.075,north-northwest,2.9,No
2024/07/12,05:20,0.146,0.128,0.207,0.194,0.204,0.115,0.076,north-northwest,2.3,No
2024/07/12,05:30,0.143,0.129,0.206,0.193,0.204,0.116,0.075,north-northwest,2.6,Yes
2024/07/12,05:40,0.145,0.129,0.209,0.192,0.201,0.115,0.076,north-northwest,2.4,Yes
2024/07/12,05:50,0.145,0.130,0.208,0.194,0.204,0.115,0.076,north-northwest,1.6,No
2024/07/12,06:00,0.145,0.128,0.207,0.194,0.204,0.117,0.076,west-northwest,0.7,Yes
2024/07/12,06:10,0.145,0.129,0.209,0.192,0.204,0.117,0.076,south-southeast,0.9,Yes
2024/07/12,06:20,0.145,0.130,0.208,0.195,0.204,0.116,0.076,-,CALM,No
2024/07/12,06:30,0.144,0.129,0.207,0.195,0.208,0.117,0.076,-,CALM,Yes
2024/07/12,06:40,0.145,0.130,0.210,0.195,0.205,0.119,0.078,-,CALM,Yes
2024/07/12,06:50,0.148,0.132,0.210,0.198,0.207,0.119,0.081,west-northwest,0.6,Yes
2024/07/12,07:00,0.148,0.132,0.212,0.199,0.210,0.124,0.083,west,0.9,Yes
2024/07/12,07:10,0.153,0.135,0.216,0.199,0.210,0.126,0.086,west,0.8,Yes
2024/07/12,07:20,0.154,0.137,0.214,0.203,0.213,0.125,0.087,west-northwest,0.7,Yes
2024/07/12,07:30,0.154,0.139,0.218,0.203,0.215,0.129,0.089,west,1.3,Yes
2024/07/12,07:40,0.158,0.141,0.220,0.206,0.215,0.130,0.091,north-northwest,1.9,Yes
2024/07/12,07:50,0.159,0.142,0.220,0.209,0.217,0.131,0.092,-,CALM,Yes
2024/07/12,08:00,0.161,0.145,0.226,0.208,0.219,0.133,0.095,east-northeast,4.7,Yes
2024/07/12,08:10,0.163,0.148,0.225,0.209,0.215,0.134,0.096,west-northwest,1.6,Yes
2024/07/12,08:20,0.161,0.144,0.223,0.208,0.217,0.130,0.092,west-northwest,2.7,Yes
2024/07/12,08:30,0.160,0.142,0.222,0.204,0.215,0.130,0.090,northwest,2.6,Yes
2024/07/12,08:40,0.159,0.142,0.221,0.205,0.211,0.127,0.087,northwest,1.9,Yes
2024/07/12,08:50,0.155,0.140,0.219,0.202,0.213,0.124,0.085,west-northwest,1.9,Yes
2024/07/12,09:00,0.158,0.142,0.218,0.200,0.210,0.125,0.085,northeast,2.7,Yes
2024/07/12,09:10,0.159,0.143,0.218,0.204,0.210,0.128,0.087,east-northeast,9.8,Yes
2024/07/12,09:20,0.161,0.144,0.221,0.204,0.215,0.127,0.090,north,2.0,Yes
2024/07/12,09:30,0.161,0.143,0.219,0.203,0.212,0.127,0.088,north-northwest,0.6,Yes
2024/07/12,09:40,0.159,0.141,0.218,0.204,0.211,0.124,0.086,north-northwest,0.7,Yes
2024/07/12,09:50,0.155,0.139,0.217,0.201,0.211,0.122,0.085,north-northwest,0.6,Yes
2024/07/12,10:00,0.155,0.137,0.214,0.199,0.209,0.121,0.085,north-northeast,1.1,Yes
2024/07/12,10:10,0.154,0.136,0.213,0.201,0.209,0.123,0.085,north,3.5,Yes
2024/07/12,10:20,0.155,0.140,0.217,0.201,0.212,0.122,0.085,northwest,1.8,Yes
2024/07/12,10:30,0.157,0.139,0.214,0.201,0.209,0.122,0.085,north-northwest,0.8,Yes
2024/07/12,10:40,0.154,0.138,0.214,0.201,0.209,0.122,0.083,-,CALM,Yes
2024/07/12,10:50,0.151,0.137,0.214,0.199,0.209,0.119,0.083,southeast,1.0,Yes
2024/07/12,11:00,0.151,0.137,0.210,0.197,0.209,0.120,0.083,east,0.9,Yes
2024/07/12,11:10,0.149,0.134,0.209,0.199,0.206,0.119,0.083,-,CALM,Yes
2024/07/12,11:20,0.147,0.134,0.211,0.197,0.207,0.119,0.082,southeast,0.9,Yes
2024/07/12,11:30,0.149,0.133,0.209,0.195,0.207,0.119,0.081,east,0.9,Yes
2024/07/12,11:40,0.147,0.131,0.207,0.195,0.206,0.118,0.079,-,CALM,Yes
2024/07/12,11:50,0.146,0.132,0.209,0.196,0.207,0.117,0.081,-,CALM,Yes
2024/07/12,12:00,0.146,0.132,0.208,0.193,0.206,0.118,0.081,south-southeast,0.6,Yes
2024/07/12,12:10,0.146,0.131,0.207,0.195,0.205,0.119,0.080,southeast,1.1,Yes
2024/07/12,12:20,0.145,0.131,0.210,0.195,0.205,0.117,0.080,east-southeast,1.4,Yes
2024/07/12,12:30,0.145,0.132,0.208,0.193,0.207,0.119,0.081,east-southeast,1.3,Yes
2024/07/12,12:40,0.147,0.132,0.210,0.197,0.207,0.120,0.082,east,1.0,Yes
2024/07/12,12:50,0.147,0.133,0.211,0.197,0.206,0.119,0.083,southeast,0.8,Yes
2024/07/12,13:00,0.148,0.133,0.210,0.196,0.208,0.121,0.083,southeast,0.6,Yes
2024/07/12,13:10,0.149,0.132,0.209,0.197,0.206,0.120,0.081,-,CALM,Yes
2024/07/12,13:20,0.146,0.133,0.209,0.197,0.205,0.118,0.082,-,CALM,Yes
2024/07/12,13:30,0.144,0.131,0.207,0.193,0.207,0.118,0.081,-,CALM,Yes
2024/07/12,13:40,0.145,0.131,0.207,0.193,0.205,0.117,0.080,southwest,1.0,Yes
2024/07/12,13:50,0.144,0.130,0.209,0.194,0.203,0.116,0.079,south,1.3,Yes
2024/07/12,14:00,0.142,0.128,0.205,0.192,0.204,0.117,0.078,south-southeast,1.5,Yes
2024/07/12,14:10,0.144,0.129,0.206,0.192,0.204,0.116,0.077,south-southeast,1.3,Yes
2024/07/12,14:20,0.143,0.129,0.206,0.195,0.203,0.115,0.078,south-southeast,1.4,Yes
2024/07/12,14:30,0.142,0.129,0.204,0.191,0.203,0.115,0.077,south-southeast,1.8,Yes
2024/07/12,14:40,0.143,0.128,0.204,0.191,0.204,0.115,0.077,south-southeast,1.7,Yes
2024/07/12,14:50,0.144,0.128,0.206,0.193,0.201,0.114,0.077,southeast,1.5,Yes
2024/07/12,15:00,0.141,0.126,0.205,0.191,0.203,0.114,0.076,south-southeast,1.9,Yes
2024/07/12,15:10,0.142,0.127,0.204,0.190,0.202,0.113,0.076,southeast,2.0,Yes
2024/07/12,15:20,0.143,0.127,0.206,0.193,0.202,0.114,0.076,south-southeast,1.6,Yes
2024/07/12,15:30,0.142,0.126,0.203,0.190,0.201,0.113,0.076,south,1.5,Yes
2024/07/12,15:40,0.141,0.126,0.202,0.188,0.204,0.113,0.075,south-southeast,2.3,Yes
2024/07/12,15:50,0.141,0.127,0.204,0.190,0.202,0.112,0.074,south-southeast,2.3,Yes
2024/07/12,16:00,0.141,0.125,0.201,0.190,0.199,0.114,0.075,south-southeast,2.3,Yes
2024/07/12,16:10,0.140,0.126,0.201,0.188,0.203,0.112,0.074,south-southwest,3.5,Yes
2024/07/12,16:20,0.141,0.126,0.205,0.191,0.202,0.112,0.075,-,CALM,Yes
2024/07/12,16:30,0.142,0.127,0.202,0.190,0.200,0.113,0.075,south,0.6,Yes
2024/07/12,16:40,0.141,0.126,0.203,0.189,0.202,0.113,0.075,southwest,0.7,Yes
2024/07/12,16:50,0.143,0.127,0.205,0.190,0.202,0.114,0.076,south-southeast,1.1,Yes
2024/07/12,17:00,0.142,0.127,0.203,0.191,0.201,0.114,0.074,south-southeast,1.9,Yes
2024/07/12,17:10,0.141,0.126,0.202,0.190,0.202,0.113,0.075,south-southeast,1.2,Yes
2024/07/12,17:20,0.141,0.126,0.204,0.191,0.202,0.113,0.075,south-southeast,1.4,No
2024/07/12,17:30,0.141,0.125,0.201,0.190,0.200,0.112,0.075,south-southeast,2.3,No
2024/07/12,17:40,0.141,0.125,0.202,0.189,0.199,0.112,0.074,southeast,2.9,No
2024/07/12,17:50,0.139,0.126,0.203,0.189,0.202,0.111,0.074,southeast,2.8,No
2024/07/12,18:00,0.140,0.124,0.201,0.190,0.200,0.112,0.073,southeast,2.8,No
2024/07/12,18:10,0.140,0.125,0.199,0.188,0.198,0.113,0.073,south-southeast,1.8,No
2024/07/12,18:20,0.139,0.125,0.203,0.188,0.201,0.111,0.073,south-southeast,1.3,No
2024/07/12,18:30,0.140,0.125,0.201,0.189,0.200,0.111,0.074,south,0.7,No
2024/07/12,18:40,0.140,0.125,0.200,0.187,0.198,0.111,0.073,south,0.7,Yes
2024/07/12,18:50,0.140,0.125,0.203,0.187,0.201,0.111,0.073,-,CALM,No
2024/07/12,19:00,0.140,0.123,0.201,0.190,0.201,0.111,0.073,-,CALM,No
2024/07/12,19:10,0.140,0.124,0.201,0.188,0.198,0.111,0.072,-,CALM,No
2024/07/12,19:20,0.139,0.124,0.203,0.188,0.200,0.111,0.073,-,CALM,No
2024/07/12,19:30,0.139,0.124,0.201,0.190,0.201,0.113,0.073,-,CALM,No
2024/07/12,19:40,0.140,0.124,0.201,0.188,0.199,0.112,0.072,-,CALM,No
2024/07/12,19:50,0.138,0.125,0.201,0.188,0.199,0.112,0.073,-,CALM,No
2024/07/12,20:00,0.140,0.123,0.201,0.189,0.202,0.112,0.073,-,CALM,No
2024/07/12,20:10,0.141,0.125,0.202,0.188,0.200,0.113,0.073,-,CALM,No
2024/07/12,20:20,0.139,0.124,0.202,0.187,0.199,0.111,0.073,-,CALM,No
2024/07/12,20:30,0.139,0.125,0.199,0.189,0.201,0.111,0.072,-,CALM,No
2024/07/12,20:40,0.140,0.125,0.202,0.187,0.199,0.112,0.072,-,CALM,No
2024/07/12,20:50,0.138,0.125,0.201,0.187,0.199,0.112,0.073,-,CALM,No
2024/07/12,21:00,0.140,0.124,0.200,0.189,0.201,0.113,0.073,north,0.7,No
2024/07/12,21:10,0.141,0.125,0.202,0.188,0.199,0.112,0.072,north,0.8,No
2024/07/12,21:20,0.140,0.124,0.202,0.188,0.200,0.112,0.072,north-northeast,1.6,No
2024/07/12,21:30,0.140,0.125,0.202,0.189,0.201,0.112,0.072,north-northwest,1.6,No
2024/07/12,21:40,0.140,0.125,0.203,0.188,0.200,0.112,0.073,north,1.9,No
2024/07/12,21:50,0.139,0.125,0.200,0.190,0.201,0.112,0.074,north-northwest,2.7,No
2024/07/12,22:00,0.141,0.125,0.202,0.189,0.202,0.112,0.073,north,2.2,No
2024/07/12,22:10,0.140,0.125,0.202,0.188,0.199,0.113,0.073,north-northwest,2.3,No
2024/07/12,22:20,0.140,0.125,0.202,0.190,0.202,0.112,0.074,north-northwest,2.1,No
2024/07/12,22:30,0.141,0.125,0.202,0.188,0.200,0.112,0.074,north-northwest,1.6,No
2024/07/12,22:40,0.139,0.125,0.201,0.188,0.199,0.111,0.073,north,1.7,No
2024/07/12,22:50,0.142,0.125,0.204,0.190,0.201,0.113,0.073,north-northwest,1.8,No
2024/07/12,23:00,0.141,0.125,0.201,0.189,0.199,0.112,0.073,-,CALM,No
2024/07/12,23:10,0.140,0.126,0.204,0.190,0.203,0.112,0.074,north-northwest,3.8,No
2024/07/12,23:20,0.142,0.126,0.202,0.188,0.202,0.113,0.073,north-northwest,4.4,No
2024/07/12,23:30,0.141,0.126,0.203,0.191,0.201,0.113,0.075,north-northwest,4.8,No
2024/07/12,23:40,0.142,0.126,0.204,0.191,0.202,0.113,0.074,north-northwest,4.8,No
2024/07/12,23:50,0.142,0.125,0.203,0.190,0.201,0.114,0.074,north-northwest,6.0,No
